Location: Raleigh
(35.7720°N, 78.6390°W)
Time: 05:51:33
(UTC-04:00)

JAS-2 - Visible Passes

Search period start: 27 May 2015 00:00
Search period end: 06 June 2015 00:00
Orbit: 800 x 1322 km, 98.5° (Epoch: 25 May)

Date Brightness Start Highest point End Pass type
(mag) Time Alt. Az. Time Alt. Az. Time Alt. Az.
27 May 9.1 05:15:21 10° N 05:20:32 83° WNW 05:25:57 10° SSW visible
28 May 10.9 04:20:53 10° NE 04:25:19 29° E 04:30:01 10° SSE visible
29 May 9.2 05:10:19 10° NNE 05:15:32 89° E 05:21:02 10° SSW visible
30 May 11.0 04:15:57 10° NE 04:20:17 27° E 04:24:56 10° SSE visible
31 May 9.3 05:05:17 10° NNE 05:10:31 83° ESE 05:16:06 10° SSW visible
01 Jun 11.1 04:11:03 10° NE 04:15:16 25° E 04:19:50 10° SSE visible
02 Jun 9.4 05:00:16 10° NNE 05:05:31 76° ESE 05:11:11 10° S visible
03 Jun 11.2 04:06:08 10° NE 04:10:14 23° E 04:14:44 10° SSE visible
04 Jun 9.5 04:55:14 10° NNE 05:00:31 70° ESE 05:06:16 10° S visible
05 Jun 11.4 04:01:15 10° NE 04:05:13 22° E 04:09:38 10° SE visible
